• In Deutschland
  • Länderverzeichnis
  • Für 7 Tage
  • Wassertemperatur
  • Satellitenkarten
  • Wetterkarte
  • Widgets
  • user-avatar
    Anmelden

    Stündliche Wetter Kaprun

    Heute, 21 November, Dienstag

    Zeit Temperatur Niederschläge Wind Luftdruck Luftfeuchtigkeit
    00:00 -6°C° 0,3 mm 2 m/S 594 mmHg 91%
    01:00 -5°C° 0 mm 2 m/S 594 mmHg 89%
    02:00 -5°C° 0,4 mm 2 m/S 594 mmHg 90%
    03:00 -5°C° 0,4 mm 2 m/S 594 mmHg 91%
    04:00 -5°C° 0,4 mm 2 m/S 594 mmHg 92%
    05:00 -5°C° 0,4 mm 2 m/S 594 mmHg 92%
    06:00 -4°C° 0,4 mm 2 m/S 594 mmHg 93%
    07:00 -4°C° 0,4 mm 2 m/S 594 mmHg 93%
    08:00 -4°C° 0,4 mm 2 m/S 595 mmHg 93%
    09:00 -3°C° 0,4 mm 2 m/S 595 mmHg 93%
    10:00 -2°C° 0,4 mm 2 m/S 595 mmHg 93%
    11:00 -2°C° 0,2 mm 2 m/S 596 mmHg 93%
    12:00 -1°C° 0,2 mm 2 m/S 596 mmHg 94%
    13:00 -1°C° 0,2 mm 2 m/S 596 mmHg 94%
    14:00 -1°C° 0,4 mm 2 m/S 596 mmHg 94%
    15:00 -1°C° 0,4 mm 2 m/S 595 mmHg 95%
    16:00 0°C° 0,4 mm 1 m/S 595 mmHg 95%
    17:00 -2°C° 0,2 mm 2 m/S 595 mmHg 94%
    18:00 -2°C° 0,2 mm 2 m/S 595 mmHg 94%
    19:00 -3°C° 0,2 mm 2 m/S 595 mmHg 93%
    20:00 -3°C° 0 mm 2 m/S 595 mmHg 92%
    21:00 -2°C° 0 mm 1 m/S 595 mmHg 91%
    22:00 -2°C° 0 mm 1 m/S 595 mmHg 90%
    23:00 -2°C° 0 mm 1 m/S 595 mmHg 89%

    Morgen, 22 November, Mittwoch

    Zeit Temperatur Niederschläge Wind Luftdruck Luftfeuchtigkeit
    00:00 -3°C° 0 mm 1 m/S 595 mmHg 87%
    01:00 -3°C° 0 mm 1 m/S 595 mmHg 86%
    02:00 -3°C° 0 mm 1 m/S 594 mmHg 84%
    03:00 -3°C° 0 mm 1 m/S 594 mmHg 83%
    04:00 -3°C° 0 mm 1 m/S 594 mmHg 81%
    05:00 -3°C° 0 mm 1 m/S 594 mmHg 80%
    06:00 -4°C° 0 mm 1 m/S 594 mmHg 78%
    07:00 -4°C° 0 mm 1 m/S 594 mmHg 77%
    08:00 -2°C° 0 mm 1 m/S 595 mmHg 78%
    09:00 -1°C° 0 mm 1 m/S 595 mmHg 79%
    10:00 +1°C° 0 mm 1 m/S 596 mmHg 80%
    11:00 +2°C° 0 mm 1 m/S 596 mmHg 84%
    12:00 +2°C° 0 mm 1 m/S 596 mmHg 87%
    13:00 +3°C° 0 mm 1 m/S 596 mmHg 91%
    14:00 +2°C° 0 mm 1 m/S 596 mmHg 89%
    15:00 +1°C° 0 mm 1 m/S 595 mmHg 87%
    16:00 0°C° 0 mm 1 m/S 595 mmHg 85%
    17:00 -1°C° 0 mm 1 m/S 594 mmHg 83%
    18:00 -2°C° 0 mm 1 m/S 594 mmHg 81%
    19:00 -5°C° 0 mm 2 m/S 594 mmHg 79%
    20:00 -5°C° 0 mm 2 m/S 594 mmHg 78%
    21:00 -5°C° 0 mm 2 m/S 594 mmHg 77%
    22:00 -5°C° 0 mm 2 m/S 594 mmHg 76%
    23:00 -5°C° 0 mm 2 m/S 594 mmHg 77%

    übermorgen, 23 November, Donnerstag

    Zeit Temperatur Niederschläge Wind Luftdruck Luftfeuchtigkeit
    00:00 -6°C° 0 mm 2 m/S 594 mmHg 77%
    01:00 -6°C° 0 mm 2 m/S 593 mmHg 78%
    02:00 -6°C° 0 mm 2 m/S 593 mmHg 78%
    03:00 -6°C° 0 mm 2 m/S 593 mmHg 78%
    04:00 -6°C° 0 mm 2 m/S 593 mmHg 79%
    05:00 -6°C° 0 mm 2 m/S 593 mmHg 79%
    06:00 -6°C° 0 mm 2 m/S 593 mmHg 79%
    07:00 -6°C° 0 mm 2 m/S 594 mmHg 78%
    08:00 -2°C° 0 mm 1 m/S 595 mmHg 78%
    09:00 -1°C° 0 mm 1 m/S 595 mmHg 79%
    10:00 +1°C° 0 mm 1 m/S 596 mmHg 79%
    11:00 +2°C° 0 mm 1 m/S 597 mmHg 82%
    12:00 +2°C° 0 mm 1 m/S 597 mmHg 85%
    13:00 +3°C° 0 mm 1 m/S 597 mmHg 88%
    14:00 +2°C° 0 mm 1 m/S 597 mmHg 84%
    15:00 +1°C° 0 mm 1 m/S 597 mmHg 80%
    16:00 0°C° 0 mm 1 m/S 596 mmHg 76%
    17:00 -1°C° 0 mm 1 m/S 596 mmHg 73%
    18:00 -2°C° 0 mm 1 m/S 596 mmHg 71%
    19:00 -4°C° 0 mm 2 m/S 596 mmHg 68%
    20:00 -5°C° 0 mm 2 m/S 597 mmHg 68%
    21:00 -3°C° 0 mm 1 m/S 597 mmHg 67%
    22:00 -3°C° 0 mm 1 m/S 597 mmHg 67%
    23:00 -3°C° 0 mm 1 m/S 597 mmHg 67%

    24 November, Freitag

    Zeit Temperatur Niederschläge Wind Luftdruck Luftfeuchtigkeit
    00:00 -3°C° 0 mm 1 m/S 597 mmHg 67%
    01:00 -3°C° 0 mm 1 m/S 597 mmHg 67%
    02:00 -3°C° 0 mm 1 m/S 597 mmHg 66%
    03:00 -3°C° 0 mm 1 m/S 597 mmHg 66%
    04:00 -5°C° 0 mm 2 m/S 597 mmHg 66%
    05:00 -5°C° 0 mm 2 m/S 597 mmHg 66%
    06:00 -5°C° 0 mm 2 m/S 597 mmHg 66%
    07:00 -5°C° 0 mm 2 m/S 597 mmHg 66%
    08:00 -4°C° 0 mm 2 m/S 597 mmHg 67%
    09:00 -3°C° 0 mm 2 m/S 598 mmHg 68%
    10:00 -1°C° 0 mm 2 m/S 598 mmHg 70%
    11:00 +1°C° 0 mm 2 m/S 598 mmHg 72%
    12:00 +2°C° 0 mm 2 m/S 598 mmHg 75%
    13:00 +2°C° 0 mm 2 m/S 598 mmHg 77%
    14:00 +1°C° 0 mm 2 m/S 598 mmHg 77%
    15:00 -1°C° 0 mm 2 m/S 597 mmHg 78%
    16:00 -2°C° 0 mm 2 m/S 597 mmHg 78%
    17:00 -3°C° 0 mm 2 m/S 597 mmHg 76%
    18:00 -4°C° 0 mm 2 m/S 597 mmHg 74%
    19:00 -5°C° 0 mm 2 m/S 596 mmHg 72%
    20:00 -5°C° 0 mm 2 m/S 597 mmHg 71%
    21:00 -5°C° 0 mm 2 m/S 597 mmHg 69%
    22:00 -5°C° 0 mm 2 m/S 597 mmHg 68%
    23:00 -5°C° 0 mm 2 m/S 597 mmHg 67%

    25 November, Samstag

    Zeit Temperatur Niederschläge Wind Luftdruck Luftfeuchtigkeit
    00:00 -5°C° 0 mm 2 m/S 597 mmHg 67%
    01:00 -5°C° 0 mm 2 m/S 596 mmHg 67%
    02:00 -5°C° 0 mm 2 m/S 596 mmHg 68%
    03:00 -5°C° 0 mm 2 m/S 596 mmHg 68%
    04:00 -5°C° 0 mm 2 m/S 596 mmHg 69%
    05:00 -5°C° 0 mm 2 m/S 596 mmHg 70%
    06:00 -5°C° 0 mm 2 m/S 596 mmHg 72%
    07:00 -5°C° 0 mm 2 m/S 595 mmHg 73%
    08:00 -3°C° 0 mm 2 m/S 596 mmHg 74%
    09:00 -2°C° 0 mm 2 m/S 596 mmHg 75%
    10:00 -1°C° 0 mm 3 m/S 596 mmHg 76%
    11:00 -1°C° 0 mm 3 m/S 596 mmHg 79%
    12:00 0°C° 0 mm 3 m/S 596 mmHg 82%
    13:00 +1°C° 0 mm 3 m/S 596 mmHg 84%
    14:00 0°C° 0 mm 3 m/S 595 mmHg 87%
    15:00 -1°C° 0 mm 3 m/S 595 mmHg 89%
    16:00 -2°C° 0 mm 3 m/S 594 mmHg 92%
    17:00 -2°C° 0 mm 2 m/S 595 mmHg 92%
    18:00 -3°C° 0 mm 2 m/S 595 mmHg 93%
    19:00 -3°C° 0 mm 2 m/S 595 mmHg 94%
    20:00 -1°C° 0,1 mm 1 m/S 596 mmHg 94%
    21:00 -1°C° 0,1 mm 1 m/S 596 mmHg 95%
    22:00 -2°C° 0,1 mm 1 m/S 597 mmHg 96%
    23:00 -2°C° 0,4 mm 1 m/S 597 mmHg 96%

    26 November, Sonntag

    Zeit Temperatur Niederschläge Wind Luftdruck Luftfeuchtigkeit
    00:00 -2°C° 0,4 mm 1 m/S 597 mmHg 96%
    01:00 -2°C° 0,4 mm 1 m/S 597 mmHg 96%
    02:00 -2°C° 0,4 mm 1 m/S 597 mmHg 97%
    03:00 -2°C° 0,4 mm 1 m/S 597 mmHg 97%
    04:00 -3°C° 0,4 mm 1 m/S 597 mmHg 97%
    05:00 -3°C° 0,4 mm 1 m/S 597 mmHg 97%
    06:00 -3°C° 0,4 mm 1 m/S 597 mmHg 97%
    07:00 -3°C° 0,4 mm 1 m/S 598 mmHg 97%
    08:00 -3°C° 0,6 mm 1 m/S 598 mmHg 96%
    09:00 -3°C° 0,6 mm 1 m/S 598 mmHg 95%
    10:00 -5°C° 0,6 mm 2 m/S 598 mmHg 94%
    11:00 -5°C° 0,5 mm 2 m/S 598 mmHg 94%
    12:00 -5°C° 0,5 mm 2 m/S 598 mmHg 93%
    13:00 -6°C° 0,5 mm 2 m/S 598 mmHg 93%
    14:00 -6°C° 0,7 mm 2 m/S 598 mmHg 93%
    15:00 -7°C° 0,7 mm 2 m/S 598 mmHg 93%
    16:00 -8°C° 0,7 mm 2 m/S 598 mmHg 93%
    17:00 -9°C° 0,1 mm 2 m/S 599 mmHg 93%
    18:00 -9°C° 0,1 mm 2 m/S 599 mmHg 92%
    19:00 -10°C° 0,1 mm 2 m/S 599 mmHg 92%
    20:00 -12°C° 0 mm 2 m/S 599 mmHg 91%
    21:00 -12°C° 0 mm 2 m/S 599 mmHg 91%
    22:00 -11°C° 0 mm 1 m/S 599 mmHg 91%
    23:00 -11°C° 0 mm 1 m/S 599 mmHg 87%
    Mehr zeigen